Location: Larch Mountain
(45.5297°N, 122.0872°W)
Time: 19:54:01
(UTC-07:00)

ISS - All Passes

Search period start: 27 July 2016 00:00
Search period end: 06 August 2016 00:00
Orbit: 401 x 404 km, 51.6° (Epoch: 27 July)

Date Brightness Start Highest point End Pass type
(mag) Time Alt. Az. Time Alt. Az. Time Alt. Az.
27 Jul - 00:49:30 10° WNW 00:52:23 27° N 00:55:14 10° NE visible
27 Jul - 02:26:21 10° NW 02:29:23 35° NNE 02:32:25 10° E visible
27 Jul - 04:02:44 10° WNW 04:05:57 57° SSW 04:09:09 10° SE visible
27 Jul - 20:45:13 10° SSE 20:46:38 12° SE 20:48:03 10° ESE daylight
27 Jul - 22:19:20 10° WSW 22:22:35 81° SSE 22:25:51 10° ENE visible
27 Jul - 23:56:18 10° WNW 23:59:16 31° NNW 00:02:14 10° NE visible
28 Jul - 01:33:22 10° NW 01:36:17 29° N 01:39:12 10° ENE visible
28 Jul - 03:09:46 10° WNW 03:13:03 83° NNE 03:16:18 10° ESE visible
28 Jul - 04:47:03 10° W 04:49:06 16° SW 04:51:08 10° S visible
28 Jul - 21:26:35 10° SW 21:29:42 45° SE 21:32:51 10° ENE visible
28 Jul - 23:03:06 10° W 23:06:11 39° NNW 23:09:17 10° NE visible
29 Jul - 00:40:20 10° WNW 00:43:10 27° N 00:46:01 10° ENE visible
29 Jul - 02:16:51 10° NW 02:20:04 53° NNE 02:23:16 10° E visible
29 Jul - 03:53:32 10° W 03:56:21 27° SW 03:59:10 10° SSE night (unlit)
29 Jul - 20:34:09 10° SSW 20:36:54 25° SE 20:39:39 10° E daylight
29 Jul - 22:09:57 10° WSW 22:13:10 55° NNW 22:16:23 10° ENE visible
29 Jul - 23:47:11 10° WNW 23:50:02 27° N 23:52:53 10° ENE visible
30 Jul - 01:23:56 10° NW 01:27:01 37° NNE 01:30:06 10° E visible
30 Jul - 03:00:22 10° WNW 03:03:32 48° SW 03:06:41 10° SE night (unlit)
30 Jul - 19:42:17 10° S 19:44:10 15° SE 19:46:03 10° E daylight
30 Jul - 21:16:55 10° WSW 21:20:11 88° NNW 21:23:28 10° ENE visible
30 Jul - 22:53:59 10° WNW 22:56:55 29° N 22:59:51 10° NE visible
31 Jul - 00:30:59 10° NW 00:33:56 30° N 00:36:53 10° ENE visible
31 Jul - 02:07:22 10° WNW 02:10:38 86° SSW 02:13:54 10° ESE visible
31 Jul - 03:44:58 10° WSW 03:46:38 13° SW 03:48:15 10° SSW night (unlit)
31 Jul - 20:24:06 10° SW 20:27:17 53° SE 20:30:28 10° ENE daylight
31 Jul - 22:00:45 10° W 22:03:49 36° NNW 22:06:53 10° NE visible
31 Jul - 23:37:57 10° WNW 23:40:49 27° N 23:43:40 10° ENE visible
01 Aug - 01:14:26 10° WNW 01:17:40 59° NNE 01:20:54 10° ESE visible
01 Aug - 02:51:14 10° W 02:53:54 23° SW 02:56:33 10° SSE night (unlit)
01 Aug - 19:31:33 10° SSW 19:34:26 30° SE 19:37:20 10° ENE daylight
01 Aug - 21:07:35 10° W 21:10:45 49° NNW 21:13:57 10° NE visible
01 Aug - 22:44:50 10° WNW 22:47:40 26° N 22:50:30 10° ENE visible
02 Aug - 00:21:31 10° NW 00:24:38 41° NNE 00:27:45 10° E visible
02 Aug - 01:57:59 10° WNW 02:01:05 41° SW 02:04:10 10° SE night (unlit)
02 Aug - 18:39:28 10° S 18:41:40 17° SE 18:43:53 10° E daylight
02 Aug - 20:14:30 10° WSW 20:17:45 77° NNW 20:21:01 10° ENE daylight
02 Aug - 21:51:38 10° WNW 21:54:32 28° N 21:57:26 10° NE visible
02 Aug - 23:28:34 10° NW 23:31:33 32° NNE 23:34:32 10° ENE visible
03 Aug - 01:04:57 10° WNW 01:08:12 74° SSW 01:11:26 10° SE visible
03 Aug - 02:43:04 10° WSW 02:44:07 11° SW 02:45:10 10° SSW night (unlit)
03 Aug - 19:21:36 10° SW 19:24:49 63° SSE 19:28:03 10° ENE daylight
03 Aug - 20:58:24 10° W 21:01:25 34° NNW 21:04:26 10° NE daylight
03 Aug - 22:35:33 10° NW 22:38:25 28° N 22:41:18 10° ENE visible
04 Aug - 00:11:59 10° WNW 00:15:15 67° NNE 00:18:29 10° ESE visible
04 Aug - 01:48:55 10° W 01:51:24 20° SW 01:53:52 10° S night (unlit)
04 Aug - 18:28:57 10° SSW 18:31:56 35° SE 18:34:58 10° ENE daylight
04 Aug - 20:05:11 10° W 20:08:20 45° NNW 20:11:30 10° NE daylight
04 Aug - 21:42:26 10° WNW 21:45:17 26° N 21:48:06 10° ENE visible
04 Aug - 23:19:04 10° NW 23:22:13 44° NNE 23:25:22 10° E visible
05 Aug - 00:55:36 10° WNW 00:58:36 35° SW 01:01:37 10° SSE visible
05 Aug - 17:36:42 10° S 17:39:09 20° SE 17:41:37 10° E daylight
05 Aug - 19:12:04 10° WSW 19:15:18 68° NNW 19:18:33 10° ENE daylight
05 Aug - 20:49:15 10° WNW 20:52:08 28° N 20:55:00 10° NE daylight
05 Aug - 22:26:06 10° NW 22:29:08 34° NNE 22:32:09 10° E visible
